Погода в Чусовом

Россия / Пермский край     58°17′51″N   57°49′09″E
темп.,
°C
ветер,
м/с
пор.,
м/с
влажн.,
%
обл.,
%
осадки,
мм/ч
давл.,
гПа
погр.,
м
8 марта, пн
пн823:00−18ю129899 0.1 100820
02:00−18ю229898 0.1 100721
05:00−19ююв229899 0.1 100640
08:00−18вюв2497100 0.1 1004135
11:00−13вюв3793100 0.3 1003360
14:00−9ю4790100 0.3 1000811
17:00−8юв3792100 0.7 998650
20:00−8юв41094100 1.1 996682
9 марта, вт
вт923:00−8ююв2995100 1.6 997388
02:00−9зюз2596100 0.6 998200
05:00−10зюз4995100 1.4 1000470
08:00−13з2597100 0.4 1001148
11:00−11з2392100 0.4 1003323
14:00−9зсз3490100 0.1 1006651
17:00−9зсз3590100 0.3 1008660
20:00−14сз229797 0.1 101059
10 марта, ср
ср1023:00−20ссз129878 0.1 101220
02:00−23ссз129736 0.0 101220
05:00−25ссз229658 0.0 101320
08:00−27ссз229538 0.0 101322
11:00−20ссз259151 0.0 1012300
14:00−14ссз468469 0.0 1012573
17:00−15ссз588667 0.0 1011572
20:00−21ссз3109282 0.0 1013291
11 марта, чт
чт1123:00−25ссз239685 0.0 101450
02:00−28сз129763 0.0 101319
05:00−29зсз1210042 0.0 101319
08:00−28з11100100 0.0 101321
11:00−21зсз2395100 0.1 1013307
14:00−16з3692100 0.1 1012528
17:00−13з4793100 0.3 1012632
20:00−13юз3796100 0.5 1012327
12 марта, пт
пт1223:00−10зсз31094100 1.1 1013771
02:00−11зсз41092100 0.1 1014716
05:00−14зсз41094100 0.1 1016482
08:00−16зсз4996100 0.1 1018415
11:00−15зсз4892100 0.1 1020588
14:00−11зсз5985100 0.1 1020796
17:00−8зсз598081 0.1 10211016
20:00−12з3109048 0.0 1022225